Overview Statistics Trail Chart Weather Telemetry Raw packets
 

This is the latest recevied weather packets stored in our database for station/object K7SKM. If no packets are shown the sender has not sent any weather packets the latest 10 day(s).

<< 32 33 34 35 36 37 38 >>
Time Temp. Humidity Pressure Rain* Wind** Luminosity Snow
1788457512 16.11° C 82% 1014.2 hPa 0 mm - 147 W/m² -
1788457212 15.56° C 83% 1014.1 hPa 0 mm - 163 W/m² -
1788456907 14.44° C 83% 1014.1 hPa 0 mm - 149 W/m² -
1788456603 14.44° C 84% 1014 hPa 0 mm - 122 W/m² -
1788456297 13.89° C 84% 1014.1 hPa 0 mm - 110 W/m² -
1788455993 13.89° C 86% 1014.1 hPa 0 mm - 108 W/m² -
1788455688 13.89° C 86% 1014.1 hPa 0 mm - 105 W/m² -
1788455382 13.89° C 86% 1014 hPa 0 mm - 106 W/m² -
1788455077 13.33° C 87% 1013.9 hPa 0 mm - 104 W/m² -
1788454776 13.33° C 87% 1014.1 hPa 0 mm - 92 W/m² -
1788454470 13.33° C 88% 1014.2 hPa 0 mm - 95 W/m² -
1788454165 13.33° C 89% 1014 hPa 0 mm - 113 W/m² -
1788453860 12.78° C 90% 1014 hPa 0 mm - 133 W/m² -
1788453559 12.78° C 92% 1014 hPa 0 mm - 141 W/m² -
1788453256 12.78° C 93% 1014.1 hPa 0 mm - 111 W/m² -
1788452952 12.78° C 93% 1014 hPa 0 mm - 114 W/m² -
1788452648 12.78° C 95% 1014 hPa 0 mm - 121 W/m² -
1788452343 12.22° C 95% 1013.8 hPa 0 mm - 104 W/m² -
1788452038 12.22° C 96% 1014.1 hPa 0 mm - 78 W/m² -
1788451734 12.22° C 96% 1014.1 hPa 0 mm - 60 W/m² -
1788451433 12.22° C 96% 1014.1 hPa 0 mm - 52 W/m² -
1788451132 12.22° C 96% 1014.1 hPa 0 mm - 52 W/m² -
1788450827 12.22° C 96% 1014.2 hPa 0 mm - 61 W/m² -
1788450522 12.22° C 96% 1014.1 hPa 0 mm - 69 W/m² -
1788450233 11.67° C 96% 1013.9 hPa 0 mm - 68 W/m² -

* Rain latest hour (hover to see other rain measurements)
** Current wind speed in m/s (hover to see current wind gust speed)